Location: Stamford Observatory
(41.1241°N, 73.5498°W)
Time: 19:13:44
(UTC-05:00)

Daily predictions for brighter satellites

Satellite Brightness Start Highest point End
(mag) Time Altitude Azimuth Time Altitude Azimuth Time Altitude Azimuth
BREEZE-M DEB (TANK) 3.5 17:58:33 10° WNW 18:00:49 43° N 18:08:16 10° ENE
Cosmos 1340 4.1 18:03:03 10° NNE 18:05:49 19° ENE 18:08:34 10° ESE
Cosmos 1782 Rocket 3.9 18:01:27 10° SSW 18:05:52 74° W 18:10:21 10° N
Cosmos 2322 Rocket 2.2 18:01:34 10° NNW 18:07:09 63° ENE 18:12:42 10° SE
Cosmos 44 Rocket 4.1 18:09:41 10° NW 18:14:20 55° WSW 18:18:53 10° SSE
Meteor 1-28 Rocket 3.2 18:11:18 10° NNE 18:15:08 90° E 18:18:57 10° SSW
BREEZE-M DEB (TANK) 4.0 18:15:47 10° NW 18:18:17 28° NNE 18:22:56 11° E
COSMO-SKYMED 1 3.0 18:15:01 10° N 18:19:19 66° WNW 18:23:37 10° SSW
Tiangong 2 1.0 18:16:38 10° WNW 18:19:44 81° SSW 18:22:34 12° ESE
Cosmos 1709 Rocket 4.2 18:16:50 10° SSE 18:22:45 47° E 18:28:36 10° NNE
Cosmos 1536 4.4 18:20:42 10° ESE 18:22:58 15° E 18:25:13 10° NE
Okean 2 Rocket 3.7 18:19:58 10° SSW 18:24:24 63° W 18:28:49 10° N
FENGYUN 3A 4.1 18:19:50 10° SE 18:24:50 40° ENE 18:29:51 10° N
Cosmos 1140 Rocket 4.3 18:21:33 10° SSE 18:25:55 29° E 18:30:18 10° NE
Cosmos 1190 Rocket 4.0 18:20:49 10° SSW 18:26:00 85° ESE 18:31:14 10° NNE
BREEZE-M DEB (TANK) 4.1 18:24:26 10° SSW 18:28:08 21° SSE 18:29:40 14° ESE
CZ-3C R/B 4.1 18:26:13 10° SW 18:28:17 11° SSW 18:29:54 10° S
Okean 1 3.3 18:24:32 10° N 18:28:35 62° E 18:32:36 10° SSE
Cosmos 1461 2.7 18:26:45 10° NNW 18:30:46 74° ENE 18:34:52 10° SE
Cosmos 2292 Rocket 4.2 18:26:59 10° S 18:31:47 62° E 18:38:17 10° NNE
COSMOS 2428 4.0 18:28:02 10° N 18:32:15 21° NE 18:34:54 15° E
deb Kosmos-1763 4.4 18:28:54 10° SSW 18:32:41 72° WNW 18:36:30 10° NNE
CENTAUR R/B 4.2 18:26:22 10° NW 18:33:56 49° WSW 18:41:53 10° S
Cosmos 44 3.9 18:30:08 10° NW 18:34:26 52° WSW 18:38:36 10° SSE
Meteor 1-25 Rocket 4.5 18:29:12 10° SSW 18:34:47 76° W 18:40:29 10° N
Spot 2 Rocket 4.0 18:31:33 10° SE 18:36:12 38° ENE 18:40:52 10° N
H-2A R/B 3.5 18:35:35 10° SE 18:38:47 29° ENE 18:42:02 10° N
Cosmos 2151 Rocket 3.7 18:38:31 10° S 18:43:01 85° W 18:47:34 10° N
Helios 1A 4.1 18:44:51 21° E 18:45:58 24° ENE 18:49:20 10° NNE
Cosmos 1812 3.8 18:42:15 10° NNW 18:45:59 47° W 18:49:41 10° SSW
Meteor 1-11 Rocket 3.9 18:43:31 10° SSE 18:49:03 52° E 18:54:45 10° NNE
Okean 1 Rocket 3.5 18:45:39 10° SSE 18:49:50 40° E 18:54:03 10° NNE
Envisat 4.4 18:52:53 19° ENE 18:52:53 19° ENE 18:56:07 10° NNE
GEOS 3 Rocket 3.6 18:48:22 10° NE 18:53:37 78° SE 18:58:54 10° SSW
Cosmos 1954 Rocket 3.9 18:48:38 10° S 18:53:46 72° ESE 18:58:59 10° NNE
Cosmos 2219 4.0 18:51:28 10° SSE 18:56:20 29° ESE 18:58:54 21° ENE
HJ-1C 3.2 18:53:20 10° SSE 18:56:42 80° ENE 19:00:05 10° N
Cosmos 2360 Rocket 2.1 18:53:45 10° NNW 18:59:23 65° ENE 19:05:00 10° SE
Cosmos 2219 Rocket 3.5 18:58:06 10° N 19:02:08 20° NE 19:02:23 20° NE
Helios 1B rocket 3.3 19:07:49 31° SE 19:07:49 31° SE 19:10:37 10° SSE
Okean 1-7 Rocket 3.8 19:03:54 10° N 19:08:18 48° ENE 19:10:37 25° SE
Cosmos 1602 3.8 19:07:52 10° SSW 19:11:44 76° W 19:15:38 10° N
Cosmos 1633 2.9 19:08:33 10° SSW 19:12:12 67° W 19:15:54 10° N
Cosmos 1025 Rocket 3.3 19:14:34 10° N 19:18:32 45° ENE 19:18:32 45° ENE
ALOS 2.8 19:14:55 10° S 19:19:30 60° W 19:24:09 10° NNW
NOSS 8 (F) 4.3 19:18:11 10° SSW 19:21:41 78° ESE 19:21:43 78° ESE
Cosmos 1833 4.4 19:16:04 10° SSW 19:21:46 74° WNW 19:27:27 10° NNE
Spot 1 3.8 19:21:15 54° ESE 19:21:53 63° ENE 19:25:57 10° N
Cosmos 2333 Rocket 3.4 19:23:00 10° N 19:27:00 25° NE 19:27:00 25° NE
SL-16 R/B 4.3 19:28:17 10° NW 19:32:55 26° WSW 19:37:31 10° SSW
Intercosmos 24 4.1 19:29:12 10° S 19:33:11 71° E 19:38:46 10° NNE
Cosmos 1741 Rocket 3.8 19:28:53 10° SSW 19:34:05 76° ESE 19:37:55 19° NNE
SL-08 ROCKET BODY 4.3 19:28:35 10° S 19:34:44 84° E 19:40:58 10° N
Resurs 01 Rocket 2.6 19:34:46 10° S 19:39:00 46° W 19:43:15 10° NNW
Cosmos 1610 Rocket 4.4 19:34:56 10° SSE 19:41:01 57° E 19:47:03 10° NNE
Gbstr 26 Del rocket 3.4 19:41:11 10° SW 19:43:56 47° SW 19:43:56 47° SW
Cosmos 1570 Rocket 3.9 19:42:18 10° NNW 19:47:33 84° WSW 19:48:44 55° S
DELTA 2 R/B (1) 4.0 19:42:22 10° W 19:47:47 51° SSW 19:48:38 46° S
Cosmos 2327 Rocket 4.4 19:41:37 10° S 19:47:49 88° E 19:54:10 10° N
Meteor 2-9 4.5 19:42:45 10° S 19:48:14 76° E 19:53:51 10° NNE
Meteor 1-5 Rocket 4.2 19:43:25 10° S 19:49:24 86° E 19:55:22 10° N
Tiangong 2 4.0 19:53:38 10° W 19:54:34 15° WSW 19:54:34 15° WSW
Cosmos 1536 4.2 19:55:21 10° SSW 19:59:03 37° WNW 20:02:47 10° N
Cosmos 2074 Rocket 4.4 20:00:55 10° SSW 20:07:05 61° W 20:13:18 10° N
Cosmos 2184 Rocket 4.4 20:01:31 10° SSW 20:07:47 63° W 20:14:01 10° N
COSMOS 2428 2.9 20:11:22 10° NNW 20:16:58 65° WSW 20:16:58 65° WSW
Cosmos 2333 4.5 20:14:51 10° NNW 20:20:01 66° WNW 20:20:01 66° WNW
Cosmos 2237 Rocket 3.7 20:21:12 10° NNW 20:23:53 27° N 20:23:53 27° N
Nadezhda 3 Rocket 4.5 20:22:46 10° N 20:27:16 51° NNW 20:27:16 51° NNW
Envisat 4.3 20:33:05 36° NW 20:33:05 36° NW 20:36:14 10° NNW
USA 229 DEB 3.8 20:25:25 10° NW 20:32:15 79° W 20:32:15 79° W
USA 229 3.8 20:25:31 10° NW 20:32:19 79° WNW 20:32:19 79° WNW
Cosmos 2285 Rocket 4.4 20:28:22 10° NNW 20:34:37 61° W 20:34:37 61° W
Cosmos 2219 4.3 20:34:53 10° SW 20:40:17 41° WNW 20:41:02 39° NW
Cosmos 2219 Rocket 3.6 20:41:02 10° NNW 20:44:08 34° NW 20:44:08 34° NW
Cosmos 2333 Rocket 4.2 21:06:44 10° NW 21:09:02 24° NW 21:09:02 24° NW
